Flag for U.S.A. Weather past 2 weeks in Wichita, Kansas, U.S.A.

Now
53 °F

Fog.


Feels Like: 53 °F
Forecast: 55 / 78 °F
Wind: No wind

Location: Wichita Mid-Continent Airport

Current Time: Oct 20, 2014 at 8:15:12 AM

Latest Report: Oct 20, 2014 at 7:53 AM


Visibility: 5 mi

Pressure: 30.03 "Hg

Humidity: 96%

Dew point: 52 °F

Location of WichitaLocation

Historic Weather in Wichita — Graph

°F

Wichita temperature yesterday

Maximum temperature yesterday: 72 °F (at 4:53 PM)
Minimum temperature yesterday: 46 °F (at 7:53 AM)
Average temperature yesterday: 59 °F

Past Weeks' High & Low Weather Summary

 TemperatureHumidityPressure
High91 °F (Oct 7, 3:53 PM)96% (Oct 13, 3:53 AM)30.25 "Hg (Oct 13, 3:53 AM)
Low42 °F (Oct 15, 7:53 AM)16% (Oct 5, 3:53 PM)29.58 "Hg (Oct 13, 4:53 AM)
Average62 °F61%29.93 "Hg
* Reported Oct 5 6:53 AM — Oct 20 6:53 AM, Wichita, Weather by CustomWeather, © 2014

Note: Actual official high and low records may vary slightly from our data, if they occured in-between our weather recording intervals... More about our weather records

Advertising

Wichita weather history for previous 24 hours

 ConditionsComfort  
Time TempWeatherWind HumidityBarometerVisibility
6:53 AM
Oct 20
55 °FPassing clouds.3 mph90%30.01 "Hg8 mi
5:53 AM55 °FPassing clouds.3 mph90%29.99 "Hg10 mi
4:53 AM58 °FPassing clouds.No wind87%29.99 "Hg10 mi
3:53 AM58 °FPassing clouds.5 mph87%29.98 "Hg10 mi
2:53 AM60 °FPassing clouds.5 mph80%29.99 "Hg10 mi
1:53 AM60 °FPassing clouds.6 mph80%29.99 "Hg10 mi
12:53 AM58 °FPassing clouds.6 mph84%30.00 "Hg10 mi
11:53 PM
Oct 19
60 °FPassing clouds.8 mph78%30.00 "Hg10 mi
9:53 PM64 °FPassing clouds.9 mph70%29.99 "Hg10 mi
8:53 PM64 °FPassing clouds.9 mph70%29.99 "Hg10 mi
7:53 PM66 °FPassing clouds.9 mph65%30.00 "Hg10 mi
6:53 PM68 °FPartly sunny.8 mph61%29.99 "Hg10 mi
5:53 PM70 °FPartly sunny.9 mph53%29.98 "Hg10 mi
4:53 PM72 °FMostly cloudy.15 mph48%29.98 "Hg10 mi
3:53 PM71 °FBroken clouds.9 mph49%30.00 "Hg10 mi
2:53 PM70 °FScattered clouds.14 mph47%30.02 "Hg10 mi
1:53 PM68 °FScattered clouds.14 mph49%30.06 "Hg10 mi
12:53 PM65 °FBroken clouds.14 mph51%30.10 "Hg10 mi
11:53 AM62 °FBroken clouds.15 mph56%30.12 "Hg10 mi
10:53 AM59 °FPartly sunny.13 mph62%30.14 "Hg10 mi
9:53 AM56 °FScattered clouds.12 mph70%30.15 "Hg10 mi
8:53 AM50 °FScattered clouds.5 mph83%30.16 "Hg10 mi
Weather by CustomWeather, © 2014

See weather overviewHow to use our weather pages